Location: Newark
(29.9790°N, 31.1340°E)
Time: 22:43:55
(UTC+00:00)

Vanguard 3 - Visible Passes

Search period start: 18 January 2020 00:00
Search period end: 28 January 2020 00:00
Orbit: 508 x 3263 km, 33.3° (Epoch: 18 January)

Date Brightness Start Highest point End Pass type
(mag) Time Alt. Az. Time Alt. Az. Time Alt. Az.
18 Jan 10.1 15:50:14 10° SW 16:09:43 61° SSE 16:22:16 16° ENE visible
18 Jan 9.0 18:07:19 10° WSW 18:25:43 86° NNW 18:26:50 79° NE visible
18 Jan 10.6 20:26:39 10° W 20:31:24 23° WNW 20:31:24 23° WNW visible
19 Jan 9.6 16:49:28 10° WSW 17:09:18 82° SSE 17:17:04 36° ENE visible
19 Jan 9.6 19:08:18 10° W 19:21:38 57° WNW 19:21:38 57° WNW visible
20 Jan 10.1 15:32:38 10° SW 15:52:29 67° SSE 16:07:17 11° ENE visible
20 Jan 9.1 17:49:53 10° W 18:08:59 83° NNW 18:11:51 65° ENE visible
20 Jan 10.4 20:09:19 10° W 20:16:25 30° WNW 20:16:25 30° WNW visible
21 Jan 9.8 16:32:02 10° WSW 16:52:15 86° SSE 17:02:03 28° ENE visible
21 Jan 9.4 18:50:55 10° W 19:06:37 68° NW 19:06:37 68° NW visible
21 Jan 11.1 21:09:56 10° WNW 21:11:11 13° WNW 21:11:11 13° WNW visible
22 Jan 10.2 15:15:14 10° SW 15:35:10 73° SSE 15:51:21 10° ENE visible
22 Jan 9.3 17:32:31 10° W 17:52:11 81° N 17:56:48 54° ENE visible
22 Jan 10.1 19:51:56 10° WNW 20:01:22 39° WNW 20:01:22 39° WNW visible
23 Jan 9.9 16:14:44 10° WSW 16:35:07 90° NNW 16:46:58 22° ENE visible
23 Jan 9.3 18:33:32 10° W 18:51:32 77° NNW 18:51:32 77° NNW visible
23 Jan 10.9 20:52:36 10° WNW 20:56:06 19° WNW 20:56:06 19° WNW visible
24 Jan 9.5 17:15:14 10° W 17:35:18 80° N 17:41:43 45° ENE visible
24 Jan 9.9 19:34:29 10° WNW 19:46:17 48° WNW 19:46:17 48° WNW visible
25 Jan 10.0 15:57:34 10° WSW 16:17:57 87° NNW 16:31:53 17° ENE visible
25 Jan 9.2 18:16:10 10° W 18:35:23 79° N 18:36:27 76° NE visible
25 Jan 10.7 20:35:12 10° WNW 20:41:01 25° WNW 20:41:01 25° WNW visible
26 Jan 9.7 16:58:01 10° W 17:18:20 79° N 17:26:38 37° ENE visible
26 Jan 9.6 19:17:02 10° WNW 19:31:12 60° WNW 19:31:12 60° WNW visible
27 Jan 10.1 15:40:33 10° WSW 16:00:45 84° NNW 16:16:51 12° ENE visible
27 Jan 9.3 17:58:49 10° W 18:18:35 82° N 18:21:24 67° ENE visible
27 Jan 10.4 20:17:45 10° WNW 20:25:58 32° W 20:25:58 32° W visible
